• En España
  • Lista de países
  • Para 7 días
  • Temperatura del agua
  • Mapa Satelital
  • El tiempo en el mapa
  • Informadores
  • user-avatar
    Iniciar sesión

    Tiempo cada hora Mohovoe

    Hoy, 16 Agosto, Jueves

    Tiempo Temperatura Precipitaciones Viento Presión Humedad
    00:00 +12°C° 0 mm 1 mps 748 mmHg 94%
    01:00 +12°C° 0 mm 1 mps 748 mmHg 95%
    02:00 +11°C° 0 mm 1 mps 748 mmHg 95%
    03:00 +11°C° 0 mm 1 mps 748 mmHg 96%
    04:00 +11°C° 0 mm 1 mps 748 mmHg 96%
    05:00 +11°C° 0,2 mm 1 mps 748 mmHg 95%
    06:00 +12°C° 0,2 mm 1 mps 748 mmHg 94%
    07:00 +13°C° 0,2 mm 1 mps 748 mmHg 93%
    08:00 +13°C° 1,4 mm 1 mps 748 mmHg 94%
    09:00 +13°C° 1,4 mm 1 mps 747 mmHg 95%
    10:00 +13°C° 1,4 mm 1 mps 747 mmHg 97%
    11:00 +14°C° 0,9 mm 1 mps 747 mmHg 96%
    12:00 +14°C° 0,9 mm 2 mps 747 mmHg 96%
    13:00 +13°C° 0,9 mm 3 mps 746 mmHg 96%
    14:00 +14°C° 0,4 mm 2 mps 746 mmHg 96%
    15:00 +14°C° 0,4 mm 2 mps 746 mmHg 97%
    16:00 +14°C° 0,4 mm 2 mps 746 mmHg 97%
    17:00 +14°C° 0,2 mm 2 mps 746 mmHg 97%
    18:00 +14°C° 0,2 mm 2 mps 746 mmHg 97%
    19:00 +14°C° 0,2 mm 2 mps 746 mmHg 97%
    20:00 +13°C° 0,1 mm 2 mps 746 mmHg 97%
    21:00 +13°C° 0,1 mm 2 mps 746 mmHg 97%
    22:00 +13°C° 0,1 mm 2 mps 746 mmHg 97%
    23:00 +12°C° 0 mm 2 mps 746 mmHg 97%

    Mañana, 17 Agosto, Viernes

    Tiempo Temperatura Precipitaciones Viento Presión Humedad
    00:00 +12°C° 0 mm 2 mps 747 mmHg 97%
    01:00 +12°C° 0 mm 2 mps 747 mmHg 97%
    02:00 +10°C° 0 mm 2 mps 747 mmHg 97%
    03:00 +10°C° 0 mm 2 mps 747 mmHg 97%
    04:00 +9°C° 0 mm 2 mps 748 mmHg 97%
    05:00 +10°C° 0 mm 3 mps 748 mmHg 95%
    06:00 +10°C° 0 mm 3 mps 748 mmHg 93%
    07:00 +10°C° 0 mm 3 mps 748 mmHg 91%
    08:00 +12°C° 0 mm 3 mps 749 mmHg 80%
    09:00 +14°C° 0 mm 4 mps 749 mmHg 69%
    10:00 +17°C° 0 mm 4 mps 749 mmHg 58%
    11:00 +18°C° 0,1 mm 4 mps 749 mmHg 56%
    12:00 +18°C° 0,1 mm 4 mps 749 mmHg 55%
    13:00 +19°C° 0,1 mm 4 mps 749 mmHg 53%
    14:00 +18°C° 0,3 mm 4 mps 750 mmHg 58%
    15:00 +18°C° 0,3 mm 4 mps 750 mmHg 63%
    16:00 +17°C° 0,3 mm 4 mps 750 mmHg 68%
    17:00 +15°C° 0,2 mm 4 mps 750 mmHg 73%
    18:00 +14°C° 0,2 mm 3 mps 750 mmHg 78%
    19:00 +13°C° 0,2 mm 3 mps 750 mmHg 83%
    20:00 +12°C° 0 mm 3 mps 751 mmHg 86%
    21:00 +11°C° 0 mm 3 mps 751 mmHg 90%
    22:00 +9°C° 0 mm 3 mps 751 mmHg 94%
    23:00 +9°C° 0 mm 2 mps 752 mmHg 94%

    Pasado mañana, 18 Agosto, Sábado

    Tiempo Temperatura Precipitaciones Viento Presión Humedad
    00:00 +8°C° 0 mm 2 mps 752 mmHg 95%
    01:00 +8°C° 0 mm 2 mps 752 mmHg 96%
    02:00 +8°C° 0 mm 2 mps 752 mmHg 96%
    03:00 +7°C° 0 mm 2 mps 752 mmHg 96%
    04:00 +7°C° 0 mm 2 mps 752 mmHg 96%
    05:00 +7°C° 0 mm 2 mps 753 mmHg 93%
    06:00 +8°C° 0 mm 3 mps 753 mmHg 91%
    07:00 +9°C° 0 mm 3 mps 753 mmHg 88%
    08:00 +10°C° 0 mm 3 mps 753 mmHg 81%
    09:00 +11°C° 0 mm 3 mps 753 mmHg 73%
    10:00 +12°C° 0 mm 3 mps 754 mmHg 65%
    11:00 +13°C° 0 mm 3 mps 754 mmHg 62%
    12:00 +14°C° 0 mm 3 mps 753 mmHg 59%
    13:00 +16°C° 0 mm 3 mps 753 mmHg 56%
    14:00 +16°C° 0 mm 3 mps 753 mmHg 55%
    15:00 +17°C° 0 mm 3 mps 753 mmHg 54%
    16:00 +17°C° 0 mm 3 mps 753 mmHg 53%
    17:00 +16°C° 0 mm 3 mps 754 mmHg 58%
    18:00 +15°C° 0 mm 2 mps 754 mmHg 64%
    19:00 +14°C° 0 mm 2 mps 754 mmHg 69%
    20:00 +12°C° 0 mm 1 mps 754 mmHg 73%
    21:00 +11°C° 0 mm 1 mps 755 mmHg 77%
    22:00 +9°C° 0 mm 1 mps 755 mmHg 81%
    23:00 +9°C° 0 mm 1 mps 755 mmHg 84%

    19 Agosto, Domingo

    Tiempo Temperatura Precipitaciones Viento Presión Humedad
    00:00 +8°C° 0 mm 1 mps 755 mmHg 86%
    01:00 +7°C° 0 mm 1 mps 755 mmHg 89%
    02:00 +7°C° 0 mm 1 mps 755 mmHg 91%
    03:00 +7°C° 0 mm 1 mps 755 mmHg 93%
    04:00 +6°C° 0 mm 1 mps 755 mmHg 94%
    05:00 +8°C° 0 mm 1 mps 756 mmHg 89%
    06:00 +9°C° 0 mm 1 mps 756 mmHg 83%
    07:00 +10°C° 0 mm 1 mps 756 mmHg 78%
    08:00 +12°C° 0 mm 1 mps 756 mmHg 70%
    09:00 +14°C° 0 mm 1 mps 755 mmHg 62%
    10:00 +16°C° 0 mm 1 mps 755 mmHg 55%
    11:00 +18°C° 0 mm 1 mps 755 mmHg 50%
    12:00 +19°C° 0 mm 1 mps 754 mmHg 46%
    13:00 +20°C° 0 mm 1 mps 754 mmHg 42%
    14:00 +20°C° 0 mm 1 mps 754 mmHg 42%
    15:00 +20°C° 0 mm 1 mps 754 mmHg 42%
    16:00 +21°C° 0 mm 1 mps 753 mmHg 42%
    17:00 +19°C° 0 mm 1 mps 753 mmHg 49%
    18:00 +16°C° 0 mm 1 mps 753 mmHg 57%
    19:00 +15°C° 0 mm 1 mps 753 mmHg 64%
    20:00 +14°C° 0 mm 1 mps 753 mmHg 68%
    21:00 +12°C° 0 mm 1 mps 753 mmHg 71%
    22:00 +11°C° 0 mm 1 mps 753 mmHg 75%
    23:00 +10°C° 0 mm 1 mps 753 mmHg 78%

    20 Agosto, Lunes

    Tiempo Temperatura Precipitaciones Viento Presión Humedad
    00:00 +10°C° 0 mm 1 mps 753 mmHg 81%
    01:00 +9°C° 0 mm 1 mps 753 mmHg 84%
    02:00 +9°C° 0 mm 1 mps 753 mmHg 85%
    03:00 +8°C° 0 mm 1 mps 753 mmHg 87%
    04:00 +8°C° 0 mm 1 mps 753 mmHg 88%
    05:00 +9°C° 0 mm 1 mps 753 mmHg 84%
    06:00 +10°C° 0 mm 1 mps 753 mmHg 80%
    07:00 +10°C° 0 mm 2 mps 753 mmHg 76%
    08:00 +14°C° 0 mm 2 mps 753 mmHg 70%
    09:00 +16°C° 0 mm 2 mps 752 mmHg 64%
    10:00 +18°C° 0 mm 2 mps 752 mmHg 57%
    11:00 +19°C° 0 mm 2 mps 752 mmHg 55%
    12:00 +20°C° 0 mm 2 mps 751 mmHg 52%
    13:00 +21°C° 0 mm 2 mps 751 mmHg 49%
    14:00 +23°C° 0 mm 2 mps 751 mmHg 50%
    15:00 +23°C° 0 mm 2 mps 750 mmHg 51%
    16:00 +23°C° 0 mm 2 mps 750 mmHg 52%
    17:00 +20°C° 0 mm 2 mps 750 mmHg 59%
    18:00 +19°C° 0 mm 2 mps 750 mmHg 66%
    19:00 +17°C° 0 mm 2 mps 750 mmHg 73%
    20:00 +17°C° 0 mm 2 mps 749 mmHg 74%
    21:00 +16°C° 0 mm 2 mps 749 mmHg 76%
    22:00 +15°C° 0 mm 2 mps 749 mmHg 78%
    23:00 +15°C° 0 mm 2 mps 749 mmHg 79%

    21 Agosto, Martes

    Tiempo Temperatura Precipitaciones Viento Presión Humedad
    00:00 +15°C° 0 mm 2 mps 749 mmHg 81%
    01:00 +14°C° 0 mm 2 mps 748 mmHg 82%
    02:00 +14°C° 0,2 mm 2 mps 748 mmHg 85%
    03:00 +14°C° 0,2 mm 2 mps 748 mmHg 88%
    04:00 +14°C° 0,2 mm 2 mps 747 mmHg 90%
    05:00 +14°C° 1 mm 2 mps 747 mmHg 93%
    06:00 +13°C° 1 mm 3 mps 747 mmHg 95%
    07:00 +13°C° 1 mm 3 mps 747 mmHg 97%
    08:00 +13°C° 0,3 mm 3 mps 747 mmHg 97%
    09:00 +14°C° 0,3 mm 3 mps 747 mmHg 97%
    10:00 +14°C° 0,3 mm 3 mps 747 mmHg 96%
    11:00 +16°C° 0,2 mm 3 mps 747 mmHg 93%
    12:00 +17°C° 0,2 mm 3 mps 747 mmHg 90%
    13:00 +18°C° 0,2 mm 3 mps 747 mmHg 88%
    14:00 +19°C° 0,3 mm 3 mps 747 mmHg 83%
    15:00 +19°C° 0,3 mm 3 mps 747 mmHg 78%
    16:00 +20°C° 0,3 mm 2 mps 747 mmHg 72%
    17:00 +19°C° 0 mm 2 mps 747 mmHg 76%
    18:00 +19°C° 0 mm 1 mps 747 mmHg 79%
    19:00 +18°C° 0 mm 1 mps 747 mmHg 82%
    20:00 +16°C° 0 mm 1 mps 747 mmHg 84%
    21:00 +14°C° 0 mm 1 mps 747 mmHg 86%
    22:00 +13°C° 0 mm 1 mps 748 mmHg 88%
    23:00 +12°C° 0 mm 1 mps 748 mmHg 89%
    Mostrar más